Home   Weather   Melbourne   Past weeks

Flag for Australia Past Weather in Melbourne, Victoria, Australia — Yesterday and Last 2 Weeks

Now
52 °F

Clear.


Feels Like: 49 °F
Forecast: 51 / 61 °F
Wind: 8 mph from North

Location: Melbourne Airport

Current Time: Sep 30, 2016 at 9:54:39 PM

Latest Report: Sep 30, 2016 at 9:00 PM


Visibility: 10 mi

Pressure: 29.45 "Hg

Humidity: 88%

Dew Point: 48 °F

Location of MelbourneLocation

Past Weather in Melbourne — Graph

°F

Melbourne Temperature Yesterday

Maximum temperature yesterday: 61 °F (at 1:47 PM)
Minimum temperature yesterday: 48 °F (at 6:00 PM)
Average temperature yesterday: 54 °F

High & Low Weather Summary for the Past Weeks

 TemperatureHumidityPressure
High66 °F (Sep 24, 1:30 PM)100% (Sep 25, 12:00 AM)30.09 "Hg (Sep 25, 12:00 AM)
Low41 °F (Sep 19, 5:00 AM)39% (Sep 29, 2:00 PM)29.15 "Hg (Sep 29, 6:00 AM)
Average53 °F74%29.81 "Hg
* Reported Sep 15 8:00 PM — Sep 30 8:00 PM, Melbourne, Weather by CustomWeather, © 2016

Note: Actual official high and low records may vary slightly from our data, if they occured in-between our weather recording intervals... More about our weather records

Advertising

Melbourne Weather History for the Previous 24 Hours

Scroll right to see more
 ConditionsComfort  
Time TempWeatherWind HumidityBarometerVisibility
8:00 PM
Fri, Sep 30
52 °FPassing clouds.7 mph88%29.45 "HgN/A
7:30 PM52 °FPartly cloudy.7 mph88%29.45 "HgN/A
7:00 PM52 °FSprinkles. Partly cloudy.8 mph94%29.42 "HgN/A
6:30 PM52 °FPartly cloudy.3 mph88%29.42 "HgN/A
6:00 PM52 °FBroken clouds.6 mph88%29.42 "HgN/A
5:54 PM54 °FSprinkles. Broken clouds.7 mph82%29.42 "HgN/A
5:00 PM54 °FSprinkles. Partly sunny.13 mph82%29.39 "Hg3 mi
4:00 PM57 °FBroken clouds.6 mph63%29.36 "HgN/A
3:00 PM57 °FPartly sunny.9 mph67%29.33 "HgN/A
2:30 PM57 °FPartly sunny.10 mph59%29.33 "HgN/A
2:00 PM59 °FPartly sunny.10 mph59%29.33 "HgN/A
1:30 PM55 °FScattered showers. Partly sunny.9 mph72%29.33 "HgN/A
1:00 PM57 °FPartly sunny.6 mph63%29.30 "HgN/A
12:30 PM55 °FPartly sunny.6 mph67%29.30 "HgN/A
12:00 PM57 °FScattered clouds.7 mph67%29.30 "HgN/A
11:30 AM54 °FScattered clouds.6 mph77%29.30 "HgN/A
11:00 AM52 °FSprinkles. Broken clouds.10 mph82%29.30 "HgN/A
10:30 AM52 °FPartly sunny.3 mph77%29.30 "HgN/A
10:00 AM52 °FPartly sunny.7 mph72%29.30 "HgN/A
9:30 AM52 °FPartly sunny.9 mph72%29.30 "HgN/A
8:30 AM52 °FBroken clouds.13 mph77%29.27 "HgN/A
8:00 AM50 °FPartly sunny.12 mph82%29.24 "HgN/A
7:30 AM46 °FScattered clouds.6 mph93%29.24 "HgN/A
7:00 AM45 °FScattered clouds.9 mph93%29.24 "HgN/A
6:00 AM45 °FScattered clouds.10 mph87%29.21 "HgN/A
5:30 AM45 °FPassing clouds.9 mph87%29.21 "HgN/A
5:00 AM45 °FPassing clouds.12 mph93%29.18 "HgN/A
4:00 AM45 °FPassing clouds.6 mph93%29.18 "HgN/A
3:30 AM45 °FPassing clouds.2 mph100%29.18 "HgN/A
3:00 AM46 °FPassing clouds.9 mph93%29.18 "HgN/A
2:00 AM48 °FPassing clouds.10 mph94%29.18 "HgN/A
1:30 AM48 °FScattered showers. Passing clouds.9 mph94%29.18 "HgN/A
1:00 AM50 °FSprinkles. Partly cloudy.14 mph88%29.15 "HgN/A
12:30 AM50 °FSprinkles. Passing clouds.16 mph88%29.15 "HgN/A
12:00 AM50 °FPartly cloudy.14 mph82%29.15 "HgN/A
11:00 PM
Thu, Sep 29
48 °FSprinkles. Partly cloudy.15 mph82%29.18 "HgN/A
10:30 PM48 °FSprinkles. Partly cloudy.14 mph82%29.18 "HgN/A
10:00 PM48 °FPartly cloudy.8 mph87%29.21 "HgN/A
9:30 PM48 °FPassing clouds.14 mph82%29.21 "HgN/A
9:00 PM48 °FPartly cloudy.13 mph82%29.21 "HgN/A
Weather by CustomWeather, © 2016

See weather overviewHow to use our weather pages